Weather History for PAAQ - October, 2012

Change the Weather History Date:

Thursday, October 4, 2012

  Actual Average Record
Temperature  
Mean Temperature 52 °F -  
Max Temperature 59 °F 48 °F 60 °F (2001)
Min Temperature 46 °F 31 °F 18 °F (1970)
Degree Days  
Heating Degree Days 14    
Growing Degree Days 2 (Base 50)    
Moisture  
Dew Point 39 °F    
Average Humidity 59    
Maximum Humidity 90    
Minimum Humidity 45    
Precipitation  
Precipitation 0.11 in - - ()
Sea Level Pressure  
Sea Level Pressure 30.03 in    
Wind  
Wind Speed 13 mph (SE)    
Max Wind Speed 29 mph    
Max Gust Speed 44 mph    
Visibility 10 miles    
Events Rain    
Averages and records for this station are not official NWS values.
T = Trace of Precipitation, MM = Missing Value Source: NWS Daily Summary

Daily Weather History Graph

Daily Weather History Graph

Search for Another Location

Airport or City:

Trip Planner

Search our weather history database for the weather conditions in past years. The results will help you decide how hot, cold, wet, or windy it might be!

Date:

Astronomy

Oct. 04, 2012 Rise Set
Actual Time 8:12 AM AKDT 7:15 PM AKDT
Civil Twilight 7:28 AM AKDT 7:59 PM AKDT
Nautical Twilight 6:37 AM AKDT 8:49 PM AKDT
Astronomical Twilight 5:44 AM AKDT 9:43 PM AKDT
Moon 8:31 PM AKDT (10/4) 2:05 PM AKDT (10/4)
Length of Visible Light 12h 30m
Length of Day
11h 03m
Waning Gibbous, 81% of the Moon is Illuminated
Oct 4
Waning Gibbous
Oct 7
Last Quarter
Oct 15
New
Oct 21
First Quarter
Oct 29
Full

Hourly Weather History & Observations

Time (AKDT) Temp. Dew Point Humidity Pressure Visibility Wind Dir Wind Speed Gust Speed Precip Events Conditions
12:53 AM 50.0 °F 37.0 °F 61% 30.06 in 9.0 mi Variable 5.8 mph - N/A   Overcast
1:53 AM 50.0 °F 36.0 °F 59% 30.05 in 9.0 mi Variable 4.6 mph - N/A   Overcast
2:53 AM 55.9 °F 36.0 °F 47% 30.02 in 10.0 mi ESE 19.6 mph 39.1 mph N/A   Mostly Cloudy
3:00 AM 55.4 °F 35.6 °F 47% 30.01 in 10.0 mi SE 23.0 mph 34.5 mph N/A   Mostly Cloudy
3:53 AM 57.0 °F 36.0 °F 45% 30.02 in 10.0 mi SE 18.4 mph 28.8 mph N/A   Mostly Cloudy
4:53 AM 57.0 °F 37.0 °F 47% 30.00 in 10.0 mi SE 20.7 mph 36.8 mph 0.01 in   Mostly Cloudy
5:53 AM 57.0 °F 37.0 °F 47% 30.00 in 10.0 mi SE 20.7 mph 34.5 mph N/A   Mostly Cloudy
6:53 AM 57.0 °F 36.0 °F 45% 29.98 in 10.0 mi SE 23.0 mph 40.3 mph N/A   Scattered Clouds
7:53 AM 50.0 °F 34.0 °F 54% 29.99 in 10.0 mi Variable 4.6 mph - N/A   Clear
8:53 AM 48.0 °F 34.0 °F 58% 30.00 in 10.0 mi Variable 6.9 mph 20.7 mph N/A   Mostly Cloudy
9:36 AM 57.2 °F 37.4 °F 48% 29.99 in 10.0 mi SE 19.6 mph 31.1 mph N/A   Scattered Clouds
9:53 AM 57.0 °F 37.9 °F 49% 30.00 in 10.0 mi SE 19.6 mph 28.8 mph N/A   Mostly Cloudy
10:53 AM 54.0 °F 43.0 °F 66% 30.01 in 9.0 mi SE 28.8 mph 43.7 mph 0.00 in Rain Light Rain
11:53 AM 53.1 °F 43.0 °F 69% 30.04 in 10.0 mi ESE 13.8 mph 26.5 mph 0.02 in Rain Light Rain
12:53 PM 51.1 °F 44.1 °F 77% 30.05 in 8.0 mi ENE 12.7 mph 21.9 mph 0.07 in Rain Light Rain
1:53 PM 46.9 °F 44.1 °F 90% 30.03 in 10.0 mi North 12.7 mph - 0.01 in   Overcast
2:53 PM 48.0 °F 43.0 °F 83% 30.01 in 10.0 mi North 10.4 mph - N/A   Overcast
3:53 PM 48.9 °F 43.0 °F 80% 30.00 in 10.0 mi Variable 4.6 mph 21.9 mph N/A   Overcast
4:53 PM 52.0 °F 42.1 °F 69% 30.01 in 10.0 mi Variable 6.9 mph 16.1 mph N/A   Overcast
5:53 PM 53.1 °F 43.0 °F 69% 30.02 in 10.0 mi Variable 3.5 mph - N/A   Overcast
6:29 PM 57.2 °F 39.2 °F 51% 30.03 in 10.0 mi SSE 17.3 mph 24.2 mph N/A   Overcast
6:53 PM 55.9 °F 39.0 °F 53% 30.03 in 10.0 mi SSE 17.3 mph 23.0 mph N/A   Mostly Cloudy
7:53 PM 55.9 °F 39.0 °F 53% 30.04 in 10.0 mi SE 18.4 mph 23.0 mph N/A   Partly Cloudy
8:53 PM 55.0 °F 39.0 °F 55% 30.05 in 10.0 mi SE 15.0 mph 23.0 mph N/A   Clear
9:53 PM 55.0 °F 39.0 °F 55% 30.07 in 10.0 mi SE 13.8 mph - N/A   Clear
10:53 PM 55.9 °F 39.0 °F 53% 30.09 in 10.0 mi SSE 15.0 mph 23.0 mph N/A   Clear
11:53 PM 55.0 °F 39.0 °F 55% 30.12 in 10.0 mi South 13.8 mph 21.9 mph N/A   Clear